GLO2130 SBCY-SBPV

Flight info

Callsign GLO2130
Flight time 1h 32m
Altitude 38000
Route GETMA DCT NETBU DCT DUBGI
Aircraft B737/M-SDFGIKRWY/LB1

Departure

Time 2026-05-05 00:32
Airport Várzea Grande–Marechal Rondon International Airport (SBCY)

Arrival

Time 2026-05-05 02:05
Airport Governador Jorge Teixeira de Oliveira International Airport (SBPV)
Time Latitude Longitude Altitude Speed Heading
2026-05-05 00:14 -15.65154 -56.11924 596 ft 0 kts 243°
2026-05-05 00:24 -15.65150 -56.11917 596 ft 2 kts 243°
2026-05-05 00:25 -15.65143 -56.11902 596 ft 2 kts 242°
2026-05-05 00:25 -15.65136 -56.11886 596 ft 2 kts 289°
2026-05-05 00:25 -15.65148 -56.11875 596 ft 2 kts 334°
2026-05-05 00:25 -15.65155 -56.11872 596 ft 0 kts 334°
2026-05-05 00:28 -15.65154 -56.11873 596 ft 1 kts 334°
2026-05-05 00:29 -15.65113 -56.11890 596 ft 11 kts 356°
2026-05-05 00:29 -15.65045 -56.11820 596 ft 18 kts 24°
2026-05-05 00:29 -15.64917 -56.11869 595 ft 21 kts 332°
2026-05-05 00:29 -15.64789 -56.11937 595 ft 20 kts 333°
2026-05-05 00:30 -15.64666 -56.12002 595 ft 20 kts 332°
2026-05-05 00:30 -15.64548 -56.12065 594 ft 20 kts 333°
2026-05-05 00:30 -15.64436 -56.12145 595 ft 17 kts 286°
2026-05-05 00:30 -15.64390 -56.12165 595 ft 8 kts 60°
2026-05-05 00:31 -15.64415 -56.12136 595 ft 0 kts 152°
2026-05-05 00:31 -15.64473 -56.12105 595 ft 37 kts 153°
2026-05-05 00:31 -15.64935 -56.11860 595 ft 109 kts 153°
2026-05-05 00:32 -15.65780 -56.11412 619 ft 164 kts 153°
2026-05-05 00:32 -15.66830 -56.10848 1210 ft 168 kts 152°
2026-05-05 00:32 -15.67925 -56.10406 1866 ft 177 kts 180°
2026-05-05 00:32 -15.69117 -56.10901 2140 ft 203 kts 226°
2026-05-05 00:33 -15.70105 -56.12058 2400 ft 228 kts 227°
2026-05-05 00:33 -15.71283 -56.13311 2642 ft 256 kts 225°
2026-05-05 00:33 -15.72646 -56.14656 2856 ft 284 kts 224°
2026-05-05 00:33 -15.74170 -56.16104 3038 ft 309 kts 223°
2026-05-05 00:34 -15.75669 -56.17779 3325 ft 324 kts 239°
2026-05-05 00:34 -15.76717 -56.19829 3884 ft 329 kts 244°
2026-05-05 00:34 -15.77762 -56.21966 4497 ft 334 kts 244°
2026-05-05 00:34 -15.78489 -56.24252 5085 ft 337 kts 265°
2026-05-05 00:35 -15.78497 -56.26681 5721 ft 338 kts 281°
2026-05-05 00:35 -15.77618 -56.28916 6338 ft 336 kts 307°
2026-05-05 00:35 -15.76160 -56.30831 6979 ft 340 kts 312°
2026-05-05 00:35 -15.74659 -56.32714 7653 ft 344 kts 310°
2026-05-05 00:36 -15.73173 -56.34677 8349 ft 348 kts 309°
2026-05-05 00:36 -15.71706 -56.36698 9068 ft 352 kts 308°
2026-05-05 00:36 -15.70262 -56.38724 9790 ft 356 kts 308°
2026-05-05 00:36 -15.68793 -56.40802 10556 ft 359 kts 307°
2026-05-05 00:37 -15.67317 -56.42898 11338 ft 362 kts 307°
2026-05-05 00:37 -15.65830 -56.45013 12136 ft 364 kts 307°
2026-05-05 00:37 -15.64329 -56.47147 12883 ft 368 kts 307°
2026-05-05 00:37 -15.62812 -56.49304 13559 ft 373 kts 307°
2026-05-05 00:38 -15.61269 -56.51495 14224 ft 378 kts 307°
2026-05-05 00:38 -15.59709 -56.53710 14886 ft 383 kts 307°
2026-05-05 00:38 -15.58129 -56.55953 15538 ft 387 kts 307°
2026-05-05 00:38 -15.56532 -56.58218 16189 ft 391 kts 307°
2026-05-05 00:39 -15.54940 -56.60477 16782 ft 396 kts 307°
2026-05-05 00:39 -15.53304 -56.62796 17354 ft 401 kts 307°
2026-05-05 00:39 -15.51654 -56.65139 17933 ft 405 kts 307°
2026-05-05 00:39 -15.49983 -56.67508 18491 ft 408 kts 307°
2026-05-05 00:40 -15.48297 -56.69894 19043 ft 412 kts 307°
2026-05-05 00:40 -15.46598 -56.72300 19580 ft 416 kts 307°
2026-05-05 00:40 -15.44880 -56.74730 20079 ft 420 kts 307°
2026-05-05 00:40 -15.43150 -56.77179 20590 ft 423 kts 307°
2026-05-05 00:41 -15.41407 -56.79645 21071 ft 426 kts 307°
2026-05-05 00:41 -15.39647 -56.82134 21529 ft 430 kts 307°
2026-05-05 00:41 -15.37876 -56.84638 21961 ft 433 kts 307°
2026-05-05 00:41 -15.36112 -56.87132 22374 ft 436 kts 307°
2026-05-05 00:42 -15.34313 -56.89675 22778 ft 439 kts 307°
2026-05-05 00:42 -15.32501 -56.92234 23167 ft 442 kts 307°
2026-05-05 00:42 -15.30676 -56.94811 23560 ft 445 kts 307°
2026-05-05 00:42 -15.28840 -56.97402 23928 ft 447 kts 306°
2026-05-05 00:43 -15.26994 -57.00008 24285 ft 450 kts 306°
2026-05-05 00:43 -15.25138 -57.02625 24664 ft 452 kts 306°
2026-05-05 00:43 -15.23274 -57.05254 25033 ft 453 kts 306°
2026-05-05 00:43 -15.21403 -57.07891 25405 ft 455 kts 306°
2026-05-05 00:44 -15.19555 -57.10493 25751 ft 456 kts 306°
2026-05-05 00:44 -15.17671 -57.13148 26072 ft 458 kts 306°
2026-05-05 00:44 -15.15787 -57.15801 26456 ft 458 kts 305°
2026-05-05 00:44 -15.13908 -57.18445 27034 ft 453 kts 305°
2026-05-05 00:45 -15.12049 -57.21060 27567 ft 450 kts 304°
2026-05-05 00:45 -15.10197 -57.23665 28059 ft 449 kts 304°
2026-05-05 00:45 -15.08351 -57.26259 28591 ft 446 kts 304°
2026-05-05 00:45 -15.06542 -57.28802 29121 ft 443 kts 304°
2026-05-05 00:46 -15.04720 -57.31362 29665 ft 441 kts 304°
2026-05-05 00:46 -15.02904 -57.33911 30209 ft 439 kts 303°
2026-05-05 00:46 -15.01100 -57.36443 30763 ft 436 kts 303°
2026-05-05 00:46 -14.99303 -57.38965 31243 ft 435 kts 303°
2026-05-05 00:47 -14.97510 -57.41482 31701 ft 435 kts 303°
2026-05-05 00:47 -14.95718 -57.43999 32197 ft 434 kts 303°
2026-05-05 00:47 -14.93931 -57.46508 32711 ft 432 kts 303°
2026-05-05 00:47 -14.92152 -57.49003 33208 ft 431 kts 303°
2026-05-05 00:48 -14.90398 -57.51461 33644 ft 430 kts 303°
2026-05-05 00:48 -14.88625 -57.53944 34084 ft 429 kts 303°
2026-05-05 00:48 -14.86856 -57.56421 34534 ft 427 kts 303°
2026-05-05 00:48 -14.85092 -57.58888 34964 ft 426 kts 303°
2026-05-05 00:49 -14.83334 -57.61350 35377 ft 424 kts 303°
2026-05-05 00:49 -14.81584 -57.63798 35762 ft 423 kts 303°
2026-05-05 00:49 -14.79837 -57.66243 36116 ft 422 kts 303°
2026-05-05 00:49 -14.78092 -57.68685 36437 ft 422 kts 304°
2026-05-05 00:50 -14.76347 -57.71126 36765 ft 421 kts 303°
2026-05-05 00:50 -14.74638 -57.73514 37227 ft 416 kts 304°
2026-05-05 00:50 -14.72935 -57.75892 37747 ft 409 kts 304°
2026-05-05 00:50 -14.71246 -57.78252 37960 ft 410 kts 304°
2026-05-05 00:51 -14.69537 -57.80640 38001 ft 416 kts 304°
2026-05-05 00:51 -14.66052 -57.85509 38019 ft 427 kts 304°
2026-05-05 00:52 -14.62470 -57.90506 38018 ft 438 kts 304°
2026-05-05 00:52 -14.58826 -57.95586 38010 ft 448 kts 304°
2026-05-05 00:53 -14.55091 -58.00790 37997 ft 452 kts 304°
2026-05-05 00:53 -14.51344 -58.06004 37997 ft 452 kts 304°
2026-05-05 00:54 -14.47599 -58.11216 37996 ft 452 kts 304°
2026-05-05 00:54 -14.43857 -58.16420 37998 ft 451 kts 304°
2026-05-05 00:55 -14.40143 -58.21581 38000 ft 450 kts 305°
2026-05-05 00:55 -14.36205 -58.26605 37999 ft 450 kts 308°
2026-05-05 00:56 -14.32107 -58.31490 38000 ft 450 kts 309°
2026-05-05 00:56 -14.28011 -58.36368 38000 ft 449 kts 309°
2026-05-05 00:57 -14.23946 -58.41256 37998 ft 449 kts 308°
2026-05-05 00:57 -14.19923 -58.46113 38004 ft 448 kts 308°
2026-05-05 00:58 -14.15877 -58.51002 37998 ft 448 kts 308°
2026-05-05 00:58 -14.11831 -58.55886 38006 ft 448 kts 308°
2026-05-05 00:59 -14.07781 -58.60773 38006 ft 449 kts 308°
2026-05-05 00:59 -14.03755 -58.65629 38015 ft 449 kts 308°
2026-05-05 01:00 -13.99696 -58.70520 38009 ft 449 kts 308°
2026-05-05 01:00 -13.95630 -58.75417 38015 ft 450 kts 308°
2026-05-05 01:01 -13.91598 -58.80266 38006 ft 450 kts 308°
2026-05-05 01:01 -13.87527 -58.85160 38009 ft 450 kts 308°
2026-05-05 01:02 -13.83486 -58.90019 38009 ft 450 kts 308°
2026-05-05 01:02 -13.79414 -58.94911 38011 ft 450 kts 308°
2026-05-05 01:03 -13.75342 -58.99800 38008 ft 450 kts 308°
2026-05-05 01:03 -13.71272 -59.04684 38006 ft 449 kts 308°
2026-05-05 01:04 -13.67232 -59.09531 38011 ft 449 kts 308°
2026-05-05 01:04 -13.61130 -59.16842 38011 ft 449 kts 308°
2026-05-05 01:05 -13.57066 -59.21710 38011 ft 449 kts 308°
2026-05-05 01:05 -13.53030 -59.26539 38019 ft 448 kts 308°
2026-05-05 01:06 -13.48971 -59.31396 38023 ft 448 kts 308°
2026-05-05 01:06 -13.44909 -59.36251 38023 ft 448 kts 308°
2026-05-05 01:07 -13.40841 -59.41111 38015 ft 449 kts 309°
2026-05-05 01:07 -13.36769 -59.45971 38025 ft 449 kts 308°
2026-05-05 01:08 -13.32716 -59.50808 38018 ft 449 kts 308°
2026-05-05 01:08 -13.28640 -59.55670 38020 ft 449 kts 309°
2026-05-05 01:09 -13.24562 -59.60532 38017 ft 449 kts 309°
2026-05-05 01:09 -13.20486 -59.65390 38016 ft 449 kts 309°
2026-05-05 01:10 -13.16409 -59.70243 38015 ft 449 kts 309°
2026-05-05 01:10 -13.12363 -59.75057 38019 ft 448 kts 309°
2026-05-05 01:11 -13.08293 -59.79895 38016 ft 448 kts 309°
2026-05-05 01:11 -13.04224 -59.84732 38021 ft 448 kts 309°
2026-05-05 01:12 -13.00155 -59.89568 38019 ft 448 kts 309°
2026-05-05 01:12 -12.96111 -59.94371 38022 ft 448 kts 309°
2026-05-05 01:13 -12.92035 -59.99209 38020 ft 449 kts 309°
2026-05-05 01:13 -12.87953 -60.04052 38018 ft 449 kts 309°
2026-05-05 01:14 -12.83874 -60.08888 38019 ft 448 kts 309°
2026-05-05 01:14 -12.79822 -60.13691 38016 ft 448 kts 309°
2026-05-05 01:15 -12.75742 -60.18523 38021 ft 449 kts 309°
2026-05-05 01:15 -12.71656 -60.23359 38019 ft 449 kts 309°
2026-05-05 01:16 -12.67572 -60.28188 38020 ft 449 kts 309°
2026-05-05 01:16 -12.63484 -60.33023 38018 ft 449 kts 309°
2026-05-05 01:17 -12.59423 -60.37821 38020 ft 449 kts 309°
2026-05-05 01:17 -12.55333 -60.42653 38017 ft 449 kts 309°
2026-05-05 01:18 -12.51239 -60.47486 38020 ft 449 kts 309°
2026-05-05 01:18 -12.47146 -60.52315 38019 ft 449 kts 309°
2026-05-05 01:19 -12.43053 -60.57141 38017 ft 449 kts 309°
2026-05-05 01:19 -12.38957 -60.61970 38018 ft 449 kts 309°
2026-05-05 01:20 -12.34892 -60.66758 38020 ft 449 kts 309°
2026-05-05 01:20 -12.30802 -60.71576 38015 ft 448 kts 309°
2026-05-05 01:21 -12.26714 -60.76386 38019 ft 448 kts 309°
2026-05-05 01:21 -12.22650 -60.81167 38021 ft 448 kts 309°
2026-05-05 01:22 -12.18561 -60.85976 38019 ft 448 kts 309°
2026-05-05 01:22 -12.14211 -60.90549 38027 ft 450 kts 316°
2026-05-05 01:23 -12.09449 -60.94712 38021 ft 451 kts 317°
2026-05-05 01:23 -12.04696 -60.98824 38020 ft 451 kts 317°
2026-05-05 01:24 -11.99925 -61.02988 38021 ft 451 kts 317°
2026-05-05 01:24 -11.95167 -61.07166 38024 ft 451 kts 317°
2026-05-05 01:25 -11.90416 -61.11345 38018 ft 451 kts 317°
2026-05-05 01:25 -11.85700 -61.15490 38018 ft 450 kts 317°
2026-05-05 01:26 -11.80955 -61.19659 38019 ft 450 kts 317°
2026-05-05 01:26 -11.76216 -61.23820 38009 ft 449 kts 317°
2026-05-05 01:27 -11.71484 -61.27972 38011 ft 449 kts 317°
2026-05-05 01:27 -11.66744 -61.32127 38010 ft 449 kts 317°
2026-05-05 01:28 -11.62038 -61.36253 38009 ft 449 kts 317°
2026-05-05 01:28 -11.57302 -61.40404 38010 ft 449 kts 317°
2026-05-05 01:29 -11.52565 -61.44552 38009 ft 449 kts 317°
2026-05-05 01:29 -11.47830 -61.48698 38011 ft 449 kts 317°
2026-05-05 01:30 -11.43089 -61.52845 38015 ft 449 kts 317°
2026-05-05 01:30 -11.38348 -61.56993 38007 ft 449 kts 317°
2026-05-05 01:31 -11.33635 -61.61110 38012 ft 449 kts 317°
2026-05-05 01:31 -11.28891 -61.65256 38011 ft 449 kts 317°
2026-05-05 01:32 -11.24149 -61.69400 38009 ft 449 kts 317°
2026-05-05 01:32 -11.19409 -61.73542 38011 ft 449 kts 317°
2026-05-05 01:33 -11.14702 -61.77649 38006 ft 449 kts 317°
2026-05-05 01:33 -11.09954 -61.81789 38001 ft 449 kts 317°
2026-05-05 01:34 -11.05203 -61.85931 38001 ft 450 kts 318°
2026-05-05 01:34 -11.00453 -61.90070 37997 ft 449 kts 318°
2026-05-05 01:35 -10.95736 -61.94181 37991 ft 449 kts 318°
2026-05-05 01:35 -10.90988 -61.98315 37992 ft 449 kts 318°
2026-05-05 01:36 -10.86240 -62.02448 37992 ft 449 kts 318°
2026-05-05 01:36 -10.81493 -62.06577 37989 ft 449 kts 318°
2026-05-05 01:37 -10.76751 -62.10699 37994 ft 448 kts 318°
2026-05-05 01:37 -10.72046 -62.14790 37990 ft 448 kts 318°
2026-05-05 01:38 -10.67308 -62.18907 37990 ft 448 kts 319°
2026-05-05 01:38 -10.62568 -62.23023 37992 ft 448 kts 319°
2026-05-05 01:39 -10.57830 -62.27136 37986 ft 448 kts 319°
2026-05-05 01:39 -10.53119 -62.31224 37983 ft 448 kts 319°
2026-05-05 01:40 -10.48370 -62.35344 37981 ft 449 kts 319°
2026-05-05 01:40 -10.43626 -62.39457 37982 ft 448 kts 319°
2026-05-05 01:41 -10.38883 -62.43568 37982 ft 449 kts 319°
2026-05-05 01:41 -10.34168 -62.47655 37982 ft 448 kts 319°
2026-05-05 01:42 -10.29420 -62.51768 37979 ft 449 kts 319°
2026-05-05 01:42 -10.24675 -62.55874 37981 ft 448 kts 319°
2026-05-05 01:43 -10.20133 -62.60201 37992 ft 447 kts 313°
2026-05-05 01:43 -10.15878 -62.64755 37979 ft 448 kts 313°
2026-05-05 01:44 -10.11607 -62.69354 37979 ft 448 kts 313°
2026-05-05 01:44 -10.07317 -62.73936 37983 ft 448 kts 313°
2026-05-05 01:45 -10.03013 -62.78507 37981 ft 448 kts 313°
2026-05-05 01:45 -9.98707 -62.83073 37982 ft 448 kts 313°
2026-05-05 01:46 -9.94436 -62.87601 37979 ft 447 kts 313°
2026-05-05 01:46 -9.92265 -62.89902 37424 ft 455 kts 313°
2026-05-05 01:46 -9.90083 -62.92213 36835 ft 453 kts 313°
2026-05-05 01:47 -9.87906 -62.94519 36114 ft 452 kts 313°
2026-05-05 01:47 -9.85735 -62.96820 35337 ft 453 kts 313°
2026-05-05 01:47 -9.83548 -62.99136 34495 ft 455 kts 313°
2026-05-05 01:47 -9.81350 -63.01464 33598 ft 459 kts 313°
2026-05-05 01:48 -9.79137 -63.03808 32706 ft 461 kts 313°
2026-05-05 01:48 -9.76911 -63.06164 31751 ft 465 kts 313°
2026-05-05 01:48 -9.74663 -63.08544 30745 ft 469 kts 313°
2026-05-05 01:48 -9.72399 -63.10939 29705 ft 473 kts 313°
2026-05-05 01:49 -9.70144 -63.13324 28550 ft 477 kts 313°
2026-05-05 01:49 -9.67841 -63.15760 27328 ft 481 kts 313°
2026-05-05 01:49 -9.65518 -63.18215 26387 ft 480 kts 313°
2026-05-05 01:49 -9.63212 -63.20653 25445 ft 478 kts 314°
2026-05-05 01:50 -9.60923 -63.23072 24549 ft 474 kts 314°
2026-05-05 01:50 -9.58649 -63.25476 23663 ft 470 kts 315°
2026-05-05 01:50 -9.56391 -63.27861 22765 ft 467 kts 315°
2026-05-05 01:50 -9.54156 -63.30222 21872 ft 462 kts 315°
2026-05-05 01:51 -9.51941 -63.32560 20998 ft 458 kts 315°
2026-05-05 01:51 -9.49746 -63.34877 20100 ft 453 kts 315°
2026-05-05 01:51 -9.47604 -63.37138 19238 ft 448 kts 315°
2026-05-05 01:51 -9.45455 -63.39407 18367 ft 444 kts 315°
2026-05-05 01:52 -9.43331 -63.41648 17483 ft 439 kts 315°
2026-05-05 01:52 -9.41225 -63.43870 16625 ft 434 kts 315°
2026-05-05 01:52 -9.39148 -63.46060 15740 ft 429 kts 315°
2026-05-05 01:52 -9.37102 -63.48222 14885 ft 422 kts 315°
2026-05-05 01:53 -9.35086 -63.50348 14046 ft 415 kts 315°
2026-05-05 01:53 -9.33099 -63.52441 13206 ft 409 kts 315°
2026-05-05 01:53 -9.31164 -63.54476 12389 ft 403 kts 315°
2026-05-05 01:53 -9.29239 -63.56511 11568 ft 398 kts 315°
2026-05-05 01:54 -9.27335 -63.58522 10770 ft 393 kts 315°
2026-05-05 01:54 -9.25493 -63.60462 10594 ft 372 kts 315°
2026-05-05 01:54 -9.23741 -63.62307 10400 ft 354 kts 315°
2026-05-05 01:54 -9.22075 -63.64062 10241 ft 338 kts 315°
2026-05-05 01:55 -9.20480 -63.65741 10097 ft 323 kts 315°
2026-05-05 01:55 -9.18957 -63.67345 9973 ft 309 kts 315°
2026-05-05 01:55 -9.17498 -63.68881 9640 ft 303 kts 315°
2026-05-05 01:55 -9.16051 -63.70402 9176 ft 303 kts 315°
2026-05-05 01:56 -9.14587 -63.71942 8721 ft 303 kts 315°
2026-05-05 01:56 -9.13170 -63.73432 8309 ft 301 kts 315°
2026-05-05 01:56 -9.11695 -63.74983 7877 ft 300 kts 315°
2026-05-05 01:56 -9.10267 -63.76485 7456 ft 298 kts 315°
2026-05-05 01:57 -9.08833 -63.77994 7033 ft 296 kts 315°
2026-05-05 01:57 -9.07409 -63.79493 6612 ft 295 kts 315°
2026-05-05 01:57 -9.05987 -63.80982 6190 ft 292 kts 315°
2026-05-05 01:57 -9.04591 -63.82448 5775 ft 284 kts 315°
2026-05-05 01:58 -9.03281 -63.83826 5369 ft 278 kts 314°
2026-05-05 01:58 -9.01966 -63.85211 4994 ft 268 kts 315°
2026-05-05 01:58 -9.00694 -63.86557 4625 ft 262 kts 315°
2026-05-05 01:58 -8.99445 -63.87836 4263 ft 254 kts 322°
2026-05-05 01:59 -8.97901 -63.88600 3973 ft 243 kts 348°
2026-05-05 01:59 -8.96283 -63.88801 3918 ft 227 kts 358°
2026-05-05 01:59 -8.94756 -63.88870 3789 ft 212 kts 359°
2026-05-05 01:59 -8.93327 -63.88936 3680 ft 199 kts 358°
2026-05-05 02:00 -8.91971 -63.89006 3604 ft 193 kts 358°
2026-05-05 02:00 -8.90639 -63.89080 3537 ft 191 kts 358°
2026-05-05 02:00 -8.89354 -63.89154 3479 ft 185 kts 358°
2026-05-05 02:00 -8.88107 -63.89226 3365 ft 175 kts 358°
2026-05-05 02:01 -8.86900 -63.89296 3128 ft 172 kts 358°
2026-05-05 02:01 -8.85713 -63.89365 2919 ft 170 kts 358°
2026-05-05 02:01 -8.84560 -63.89435 2729 ft 169 kts 356°
2026-05-05 02:01 -8.83384 -63.89514 2533 ft 170 kts 358°
2026-05-05 02:02 -8.82250 -63.89579 2319 ft 161 kts 359°
2026-05-05 02:02 -8.81153 -63.89643 2096 ft 156 kts 359°
2026-05-05 02:02 -8.80087 -63.89704 1963 ft 147 kts 359°
2026-05-05 02:02 -8.79098 -63.89758 1721 ft 141 kts 360°
2026-05-05 02:03 -8.78133 -63.89811 1554 ft 142 kts
2026-05-05 02:03 -8.77153 -63.89865 1345 ft 142 kts
2026-05-05 02:03 -8.76157 -63.89938 1179 ft 144 kts
2026-05-05 02:03 -8.75156 -63.89992 998 ft 144 kts 360°
2026-05-05 02:04 -8.74150 -63.90038 751 ft 146 kts 359°
2026-05-05 02:04 -8.73141 -63.90102 531 ft 144 kts 358°
2026-05-05 02:04 -8.72157 -63.90156 356 ft 139 kts 356°
2026-05-05 02:04 -8.71256 -63.90209 299 ft 108 kts 355°
2026-05-05 02:05 -8.70726 -63.90241 298 ft 41 kts 356°
2026-05-05 02:05 -8.70593 -63.90242 298 ft 5 kts 317°
2026-05-05 02:05 -8.70600 -63.90261 298 ft 5 kts 203°
2026-05-05 02:05 -8.70706 -63.90244 298 ft 27 kts 176°
2026-05-05 02:06 -8.70948 -63.90229 299 ft 39 kts 176°
2026-05-05 02:06 -8.71209 -63.90213 298 ft 39 kts 176°
2026-05-05 02:06 -8.71423 -63.90184 299 ft 11 kts 128°
2026-05-05 02:06 -8.71420 -63.90103 299 ft 13 kts 86°
2026-05-05 02:07 -8.71447 -63.90051 298 ft 9 kts 179°
2026-05-05 02:07 -8.71466 -63.90033 298 ft 4 kts 86°
2026-05-05 02:07 -8.71465 -63.90003 298 ft 5 kts 86°
2026-05-05 02:07 -8.71462 -63.89965 299 ft 5 kts 86°
2026-05-05 02:08 -8.71460 -63.89930 299 ft 3 kts 85°
2026-05-05 02:08 -8.71459 -63.89925 299 ft 0 kts 85°